Trenton, NJ

11:38 PM EDT on May 21, 2018 (GMT -0400)
Trenton Mercer

Weather History for KTTN - August, 2013

Change the Weather History Date:

Wednesday, August 28, 2013

  Actual Average Record
Temperature  
Mean Temperature 73 °F 72 °F  
Max Temperature 77 °F 82 °F 98 °F (1973)
Min Temperature 68 °F 62 °F 46 °F (1986)
Degree Days  
Heating Degree Days 0 0  
Month to date heating degree days 0 0  
Since 1 June heating degree days 4 24  
Since 1 July heating degree days 0 0  
Cooling Degree Days 8 7  
Month to date cooling degree days 195 258  
Year to date cooling degree days 917 835  
Since 1 June cooling degree days 827 778  
Growing Degree Days 23 (Base 50)    
Moisture  
Dew Point 71 °F    
Average Humidity 85    
Maximum Humidity 93    
Minimum Humidity 76    
Precipitation  
Precipitation 0.33 in 0.11 in 3.25 in (1971)
Month to date precipitation 3.93 3.77  
Year to date precipitation 32.35 30.65  
Sea Level Pressure  
Sea Level Pressure 29.86 in    
Wind  
Wind Speed 2 mph (NNE)    
Max Wind Speed 12 mph    
Max Gust Speed 14 mph    
Visibility 4 miles    
Events Fog , Rain    
T = Trace of Precipitation, MM = Missing Value Source: NWS Daily Summary

Daily Weather History Graph

Daily Weather History Graph

Search for Another Location

Airport or City:

Astronomy

Aug. 28, 2013 Rise Set
Actual Time 6:23 AM EDT 7:36 PM EDT
Civil Twilight 5:54 AM EDT 8:05 PM EDT
Nautical Twilight 5:21 AM EDT 8:38 PM EDT
Astronomical Twilight 4:45 AM EDT 9:13 PM EDT
Moon No Moon Rise 2:12 PM EDT (8/28)
Length of Visible Light 14h 10m
Length of Day
13h 13m
Waning Gibbous, 47% of the Moon is Illuminated
Aug 28
Waning Gibbous
Sep 5
New
Sep 12
First Quarter
Sep 19
Full
Sep 26
Last Quarter

Hourly Weather History & Observations

Time (EDT) Temp. Dew Point Humidity Pressure Visibility Wind Dir Wind Speed Gust Speed Precip Events Conditions
12:53 AM 73.0 °F 68.0 °F 84% 29.88 in 10.0 mi Calm Calm - N/A   Clear
1:53 AM 72.0 °F 66.9 °F 84% 29.86 in 10.0 mi Calm Calm - N/A   Clear
2:53 AM 71.1 °F 68.0 °F 90% 29.85 in 10.0 mi NW 3.5 mph - N/A   Overcast
3:53 AM 71.1 °F 66.9 °F 87% 29.84 in 10.0 mi Calm Calm - N/A   Clear
4:53 AM 70.0 °F 66.0 °F 87% 29.84 in 10.0 mi NW 3.5 mph - N/A   Clear
5:53 AM 69.1 °F 66.0 °F 90% 29.84 in 10.0 mi Calm Calm - N/A   Clear
6:53 AM 71.1 °F 66.0 °F 84% 29.85 in 9.0 mi Calm Calm - N/A   Partly Cloudy
7:53 AM 72.0 °F 68.0 °F 87% 29.86 in 8.0 mi Calm Calm - N/A   Overcast
8:53 AM 73.9 °F 69.1 °F 85% 29.86 in 8.0 mi South 3.5 mph - N/A   Overcast
9:53 AM 77.0 °F 69.1 °F 76% 29.86 in 8.0 mi Calm Calm - N/A   Overcast
10:53 AM 75.0 °F 71.1 °F 87% 29.87 in 4.0 mi Calm Calm - 0.03 in Rain Light Rain
11:39 AM 73.4 °F 71.6 °F 94% 29.89 in 2.0 mi Calm Calm - 0.06 in Rain Rain
11:53 AM 73.9 °F 71.1 °F 91% 29.87 in 2.0 mi Calm Calm - 0.09 in Rain Rain
12:28 PM 73.4 °F 71.6 °F 94% 29.88 in 3.0 mi Calm Calm - 0.05 in Rain Light Rain
12:44 PM 73.4 °F 71.6 °F 94% 29.88 in 2.5 mi Calm Calm - 0.07 in Rain Rain
12:53 PM 73.9 °F 71.1 °F 91% 29.86 in 3.0 mi Calm Calm - 0.08 in Rain Light Rain
1:23 PM 73.4 °F 71.6 °F 94% 29.88 in 2.0 mi WSW 3.5 mph - 0.03 in Rain Light Rain
1:33 PM 73.4 °F 71.6 °F 94% 29.88 in 2.5 mi WSW 3.5 mph - 0.04 in Rain Light Rain
1:53 PM 73.9 °F 71.1 °F 91% 29.86 in 2.0 mi Calm Calm - 0.06 in Rain Light Rain
2:07 PM 73.4 °F 71.6 °F 94% 29.87 in 2.0 mi Calm Calm - 0.01 in Rain Light Rain
2:27 PM 75.2 °F 71.6 °F 89% 29.87 in 3.0 mi Calm Calm - 0.02 in Rain Light Rain
2:38 PM 75.2 °F 71.6 °F 89% 29.87 in 5.0 mi Calm Calm - 0.02 in Rain Light Rain
2:53 PM 75.0 °F 70.0 °F 84% 29.85 in 6.0 mi SSW 3.5 mph - 0.02 in Rain Light Rain
3:00 PM 75.2 °F 71.6 °F 89% 29.87 in 6.0 mi Calm Calm - 0.00 in Rain Light Rain
3:20 PM 75.2 °F 71.6 °F 89% 29.86 in 5.0 mi Calm Calm - 0.00 in Rain Light Rain
3:35 PM 75.2 °F 71.6 °F 89% 29.86 in 5.0 mi Variable 5.8 mph 49.5 mph 0.00 in Rain Light Rain
3:42 PM 75.2 °F 71.6 °F 89% 29.86 in 5.0 mi NW 5.8 mph 49.5 mph 0.00 in   Overcast
3:49 PM 75.2 °F 71.6 °F 89% 29.86 in 5.0 mi NNW 4.6 mph - 0.00 in Rain Light Rain
3:53 PM 75.0 °F 72.0 °F 90% 29.84 in 5.0 mi NW 4.6 mph - 0.00 in Rain Light Rain
4:00 PM 75.2 °F 71.6 °F 89% 29.86 in 5.0 mi WNW 3.5 mph - 0.00 in Rain Light Rain
4:11 PM 75.2 °F 71.6 °F 89% 29.85 in 3.0 mi Calm Calm - 0.01 in Rain Light Rain
4:21 PM 75.2 °F 71.6 °F 89% 29.85 in 5.0 mi Calm Calm - 0.01 in Rain Light Rain
4:53 PM 75.0 °F 71.1 °F 87% 29.83 in 5.0 mi Calm Calm - 0.03 in Rain Light Rain
5:53 PM 75.0 °F 72.0 °F 90% 29.83 in 4.0 mi NE 4.6 mph - 0.00 in   Overcast
6:53 PM 75.0 °F 72.0 °F 90% 29.83 in 3.0 mi NE 4.6 mph - 0.00 in Rain Light Rain
7:43 PM 73.4 °F 71.6 °F 94% 29.86 in 2.5 mi NNE 3.5 mph - 0.01 in   Clear
7:53 PM 73.9 °F 72.0 °F 93% 29.84 in 3.0 mi NNE 4.6 mph - 0.01 in   Partly Cloudy
8:00 PM 73.4 °F 71.6 °F 94% 29.86 in 2.0 mi NE 3.5 mph - N/A   Scattered Clouds
8:45 PM 73.4 °F 71.6 °F 94% 29.86 in 2.5 mi Calm Calm - 0.01 in Rain Light Rain
8:53 PM 73.9 °F 72.0 °F 93% 29.83 in 2.5 mi Calm Calm - 0.01 in Rain Light Rain
9:44 PM 73.4 °F 71.6 °F 94% 29.87 in 2.5 mi Calm Calm - 0.00 in   Mostly Cloudy
9:53 PM 72.0 °F 70.0 °F 93% 29.86 in 2.0 mi East 4.6 mph - 0.00 in   Mostly Cloudy
10:01 PM 71.6 °F 69.8 °F 94% 29.88 in 1.8 mi ENE 4.6 mph - N/A   Mostly Cloudy
10:11 PM 73.4 °F 71.6 °F 94% 29.89 in 2.5 mi ENE 8.1 mph - N/A   Mostly Cloudy
10:21 PM 73.4 °F 71.6 °F 94% 29.89 in 2.5 mi ENE 8.1 mph - N/A   Mostly Cloudy
10:28 PM 73.4 °F 71.6 °F 94% 29.89 in 2.5 mi ENE 6.9 mph - N/A   Overcast
10:53 PM 73.0 °F 71.1 °F 93% 29.87 in 2.0 mi ENE 8.1 mph - N/A   Overcast
11:14 PM 71.6 °F 69.8 °F 94% 29.89 in 1.8 mi NE 3.5 mph - N/A   Scattered Clouds
11:46 PM 71.6 °F 69.8 °F 94% 29.88 in 0.5 mi Calm Calm - N/A Fog Fog
11:53 PM 72.0 °F 70.0 °F 93% 29.87 in 0.5 mi Calm Calm - N/A Fog Fog